Time,TemperatureF,DewpointF,PressureIn,WindDirection,WindDirectionDegrees,WindSpeedMPH,WindSpeedGustMPH,Humidity,HourlyPrecipIn,Conditions,Clouds,dailyrainin,SoftwareType,DateUTC
2017-03-24 00:03:00,44.6,44.0,29.87,SSE,158,0.0,-999.0,98,0.01,,,0.01,,2017-03-24 07:03:00,
2017-03-24 00:09:00,44.6,44.0,29.86,SSE,158,0.0,-999.0,98,0.01,,,0.01,,2017-03-24 07:09:00,
2017-03-24 00:14:00,44.4,44.0,29.87,SSE,158,0.0,-999.0,98,0.02,,,0.02,,2017-03-24 07:14:00,
2017-03-24 00:20:00,44.4,44.0,29.86,SSE,158,0.0,-999.0,98,0.02,,,0.02,,2017-03-24 07:20:00,
2017-03-24 00:26:00,44.4,44.0,29.87,SSE,158,0.0,-999.0,98,0.03,,,0.03,,2017-03-24 07:26:00,
2017-03-24 00:32:00,44.4,44.0,29.86,SSE,158,0.0,-999.0,98,0.04,,,0.04,,2017-03-24 07:32:00,
2017-03-24 00:37:00,44.4,44.0,29.87,SSE,158,0.0,-999.0,98,0.05,,,0.05,,2017-03-24 07:37:00,
2017-03-24 00:43:00,44.4,44.0,29.86,SSE,158,0.0,-999.0,98,0.06,,,0.06,,2017-03-24 07:43:00,
2017-03-24 00:48:00,44.4,44.0,29.86,SSE,158,0.0,-999.0,98,0.06,,,0.06,,2017-03-24 07:48:00,
2017-03-24 00:54:00,44.4,44.0,29.87,SSE,158,0.0,-999.0,98,0.07,,,0.07,,2017-03-24 07:54:00,
2017-03-24 00:59:00,44.4,44.0,29.86,SSE,158,0.0,-999.0,98,0.08,,,0.08,,2017-03-24 07:59:00,
2017-03-24 01:05:00,44.4,44.0,29.86,SSE,158,0.0,-999.0,98,0.01,,,0.09,,2017-03-24 08:05:00,
2017-03-24 01:11:00,44.4,44.0,29.86,SSE,158,0.0,-999.0,98,0.01,,,0.09,,2017-03-24 08:11:00,
2017-03-24 01:17:00,44.2,43.0,29.86,SSE,158,0.0,-999.0,98,0.02,,,0.10,,2017-03-24 08:17:00,
2017-03-24 01:22:00,44.2,43.0,29.85,SSE,158,0.0,-999.0,98,0.02,,,0.10,,2017-03-24 08:22:00,
2017-03-24 01:28:00,44.2,43.0,29.85,SSE,158,0.0,-999.0,98,0.03,,,0.11,,2017-03-24 08:28:00,
2017-03-24 01:33:00,44.2,43.0,29.85,South,180,0.0,-999.0,98,0.04,,,0.12,,2017-03-24 08:33:00,
2017-03-24 01:39:00,44.2,43.0,29.85,South,180,0.0,-999.0,98,0.04,,,0.12,,2017-03-24 08:39:00,
2017-03-24 01:44:00,44.2,43.0,29.85,SSW,203,0.0,-999.0,98,0.04,,,0.12,,2017-03-24 08:44:00,
2017-03-24 01:50:00,44.2,43.0,29.85,SSW,203,0.0,-999.0,98,0.05,,,0.13,,2017-03-24 08:50:00,
2017-03-24 01:56:00,44.2,43.0,29.85,SSE,158,0.0,-999.0,98,0.05,,,0.13,,2017-03-24 08:56:00,
2017-03-24 02:02:00,44.2,43.0,29.84,South,180,1.0,-999.0,98,0.00,,,0.13,,2017-03-24 09:02:00,
2017-03-24 02:08:00,44.2,43.0,29.84,South,180,0.0,-999.0,98,0.00,,,0.13,,2017-03-24 09:08:00,
2017-03-24 02:13:00,44.2,43.0,29.84,South,180,0.0,-999.0,98,0.00,,,0.13,,2017-03-24 09:13:00,
2017-03-24 02:19:00,44.2,43.0,29.83,South,180,0.0,-999.0,98,0.00,,,0.13,,2017-03-24 09:19:00,
2017-03-24 02:24:00,44.0,43.0,29.83,South,180,0.0,-999.0,98,0.00,,,0.13,,2017-03-24 09:24:00,
2017-03-24 02:30:00,43.9,43.0,29.83,South,180,0.0,-999.0,98,0.00,,,0.13,,2017-03-24 09:30:00,
2017-03-24 02:36:00,43.9,43.0,29.82,East,90,0.0,-999.0,98,0.00,,,0.13,,2017-03-24 09:36:00,
2017-03-24 02:42:00,43.9,43.0,29.82,East,90,1.0,-999.0,98,0.00,,,0.13,,2017-03-24 09:42:00,
2017-03-24 02:47:00,43.9,43.0,29.82,ESE,113,0.0,-999.0,98,0.00,,,0.13,,2017-03-24 09:47:00,
2017-03-24 02:53:00,43.9,43.0,29.82,SE,135,0.0,-999.0,98,0.00,,,0.13,,2017-03-24 09:53:00,
2017-03-24 02:58:00,43.9,43.0,29.81,SSE,158,0.0,-999.0,98,0.00,,,0.13,,2017-03-24 09:58:00,
2017-03-24 03:04:00,43.9,43.0,29.81,South,180,0.0,-999.0,98,0.00,,,0.13,,2017-03-24 10:04:00,
2017-03-24 03:09:00,43.9,43.0,29.81,SSW,203,0.0,-999.0,98,0.00,,,0.13,,2017-03-24 10:09:00,
2017-03-24 03:15:00,43.9,43.0,29.81,SSW,203,0.0,-999.0,98,0.00,,,0.13,,2017-03-24 10:15:00,
2017-03-24 03:19:00,43.6,43.0,29.80,ENE,68,0.0,-999.0,98,0.00,,,0.13,,2017-03-24 10:19:00,
2017-03-24 03:25:00,43.6,43.0,29.81,East,90,0.0,-999.0,98,0.00,,,0.13,,2017-03-24 10:25:00,
2017-03-24 03:30:00,43.4,43.0,29.80,East,90,0.0,-999.0,98,0.00,,,0.13,,2017-03-24 10:30:00,
2017-03-24 03:36:00,43.2,43.0,29.80,East,90,0.0,-999.0,98,0.00,,,0.13,,2017-03-24 10:36:00,
2017-03-24 03:42:00,43.2,43.0,29.79,ESE,113,0.0,-999.0,98,0.00,,,0.13,,2017-03-24 10:42:00,
2017-03-24 03:47:00,43.2,42.0,29.80,SSE,158,0.0,-999.0,98,0.00,,,0.13,,2017-03-24 10:47:00,
2017-03-24 03:53:00,43.2,42.0,29.79,SSE,158,0.0,-999.0,98,0.00,,,0.13,,2017-03-24 10:53:00,
2017-03-24 03:58:00,43.0,42.0,29.79,ESE,113,0.0,-999.0,98,0.00,,,0.13,,2017-03-24 10:58:00,
2017-03-24 04:04:00,43.0,42.0,29.79,SE,135,0.0,-999.0,98,0.00,,,0.13,,2017-03-24 11:04:00,
2017-03-24 04:10:00,42.7,42.0,29.79,SE,135,0.0,-999.0,98,0.00,,,0.13,,2017-03-24 11:10:00,
2017-03-24 04:15:00,42.5,42.0,29.79,SE,135,0.0,-999.0,98,0.00,,,0.13,,2017-03-24 11:15:00,
2017-03-24 04:21:00,42.5,42.0,29.79,SE,135,0.0,-999.0,98,0.00,,,0.13,,2017-03-24 11:21:00,
2017-03-24 04:27:00,42.5,42.0,29.79,SE,135,0.0,-999.0,98,0.00,,,0.13,,2017-03-24 11:27:00,
2017-03-24 04:32:00,42.5,42.0,29.78,SE,135,0.0,-999.0,98,0.00,,,0.13,,2017-03-24 11:32:00,
2017-03-24 04:38:00,42.4,42.0,29.78,SE,135,0.0,-999.0,98,0.00,,,0.13,,2017-03-24 11:38:00,
2017-03-24 04:44:00,42.5,42.0,29.78,ENE,68,0.0,-999.0,98,0.00,,,0.13,,2017-03-24 11:44:00,
2017-03-24 04:49:00,42.5,42.0,29.78,SE,135,0.0,-999.0,98,0.00,,,0.13,,2017-03-24 11:49:00,
2017-03-24 04:55:00,42.5,42.0,29.78,East,90,0.0,-999.0,98,0.00,,,0.13,,2017-03-24 11:55:00,
2017-03-24 05:00:00,42.5,42.0,29.77,East,90,0.0,-999.0,98,0.00,,,0.13,,2017-03-24 12:00:00,
2017-03-24 05:06:00,43.0,42.0,29.78,SSE,158,0.0,-999.0,98,0.00,,,0.13,,2017-03-24 12:06:00,
2017-03-24 05:12:00,42.5,42.0,29.78,SE,135,0.0,-999.0,98,0.00,,,0.13,,2017-03-24 12:12:00,
2017-03-24 05:18:00,42.5,42.0,29.77,East,90,0.0,-999.0,98,0.00,,,0.13,,2017-03-24 12:18:00,
2017-03-24 05:23:00,42.7,42.0,29.77,East,90,0.0,-999.0,98,0.00,,,0.13,,2017-03-24 12:23:00,
2017-03-24 05:29:00,43.0,42.0,29.77,East,90,0.0,-999.0,98,0.00,,,0.13,,2017-03-24 12:29:00,
2017-03-24 05:35:00,43.2,42.0,29.77,South,180,0.0,-999.0,98,0.00,,,0.13,,2017-03-24 12:35:00,
2017-03-24 05:41:00,43.2,42.0,29.77,South,180,0.0,-999.0,98,0.00,,,0.13,,2017-03-24 12:41:00,
2017-03-24 05:46:00,43.2,43.0,29.78,ENE,68,0.0,-999.0,98,0.01,,,0.14,,2017-03-24 12:46:00,
2017-03-24 05:52:00,43.2,43.0,29.78,South,180,0.0,-999.0,98,0.01,,,0.14,,2017-03-24 12:52:00,
2017-03-24 05:57:00,43.2,43.0,29.78,SSE,158,0.0,-999.0,98,0.01,,,0.14,,2017-03-24 12:57:00,
2017-03-24 06:03:00,43.4,43.0,29.78,SSE,158,0.0,-999.0,98,0.01,,,0.15,,2017-03-24 13:03:00,
2017-03-24 06:09:00,43.4,43.0,29.78,SSE,158,0.0,-999.0,98,0.03,,,0.17,,2017-03-24 13:09:00,
2017-03-24 06:14:00,43.4,43.0,29.78,SSW,203,0.0,-999.0,98,0.03,,,0.17,,2017-03-24 13:14:00,
2017-03-24 06:20:00,43.6,43.0,29.78,SSW,203,0.0,-999.0,98,0.04,,,0.18,,2017-03-24 13:20:00,
2017-03-24 06:26:00,43.6,43.0,29.77,ENE,68,0.0,-999.0,98,0.04,,,0.18,,2017-03-24 13:26:00,
2017-03-24 06:32:00,43.9,43.0,29.78,South,180,0.0,-999.0,98,0.04,,,0.18,,2017-03-24 13:32:00,
2017-03-24 06:37:00,43.9,43.0,29.78,ESE,113,0.0,-999.0,98,0.04,,,0.18,,2017-03-24 13:37:00,
2017-03-24 06:43:00,43.9,43.0,29.78,SSW,203,0.0,-999.0,98,0.04,,,0.18,,2017-03-24 13:43:00,
2017-03-24 06:48:00,43.9,43.0,29.78,SSE,158,0.0,-999.0,98,0.05,,,0.19,,2017-03-24 13:48:00,
2017-03-24 06:54:00,43.9,43.0,29.78,South,180,1.0,-999.0,98,0.06,,,0.20,,2017-03-24 13:54:00,
2017-03-24 06:59:00,44.0,43.0,29.77,ESE,113,0.0,-999.0,98,0.06,,,0.20,,2017-03-24 13:59:00,
2017-03-24 07:06:00,44.0,43.0,29.78,SSW,203,0.0,-999.0,98,0.00,,,0.20,,2017-03-24 14:06:00,
2017-03-24 07:11:00,44.0,43.0,29.77,East,90,0.0,-999.0,98,0.00,,,0.20,,2017-03-24 14:11:00,
2017-03-24 07:17:00,44.0,43.0,29.77,SE,135,0.0,-999.0,98,0.00,,,0.20,,2017-03-24 14:17:00,
2017-03-24 07:22:00,44.0,43.0,29.77,ENE,68,0.0,-999.0,98,0.00,,,0.20,,2017-03-24 14:22:00,
2017-03-24 07:28:00,44.0,43.0,29.77,ESE,113,0.0,-999.0,98,0.00,,,0.20,,2017-03-24 14:28:00,
2017-03-24 07:33:00,44.0,43.0,29.77,ESE,113,0.0,-999.0,98,0.00,,,0.20,,2017-03-24 14:33:00,
2017-03-24 07:40:00,44.0,43.0,29.77,South,180,0.0,-999.0,98,0.00,,,0.20,,2017-03-24 14:40:00,
2017-03-24 07:45:00,44.0,43.0,29.78,ENE,68,0.0,-999.0,98,0.00,,,0.20,,2017-03-24 14:45:00,
2017-03-24 07:51:00,44.0,43.0,29.77,East,90,0.0,-999.0,98,0.00,,,0.20,,2017-03-24 14:51:00,
2017-03-24 07:56:00,44.2,43.0,29.77,ENE,68,0.0,-999.0,98,0.01,,,0.21,,2017-03-24 14:56:00,
2017-03-24 08:02:00,44.2,43.0,29.77,ENE,68,0.0,-999.0,98,0.00,,,0.21,,2017-03-24 15:02:00,
2017-03-24 08:07:00,44.4,44.0,29.77,South,180,1.0,-999.0,98,0.00,,,0.21,,2017-03-24 15:07:00,
2017-03-24 08:13:00,44.4,44.0,29.78,South,180,0.0,-999.0,98,0.00,,,0.21,,2017-03-24 15:13:00,
2017-03-24 08:19:00,44.6,44.0,29.78,SSE,158,0.0,-999.0,98,0.00,,,0.21,,2017-03-24 15:19:00,
2017-03-24 08:25:00,44.6,44.0,29.78,ESE,113,0.0,-999.0,98,0.00,,,0.21,,2017-03-24 15:25:00,
2017-03-24 08:30:00,44.6,44.0,29.78,SE,135,0.0,-999.0,98,0.01,,,0.22,,2017-03-24 15:30:00,
2017-03-24 08:36:00,44.8,44.0,29.78,SE,135,0.0,-999.0,98,0.01,,,0.22,,2017-03-24 15:36:00,
2017-03-24 08:41:00,44.8,44.0,29.78,East,90,0.0,-999.0,98,0.01,,,0.22,,2017-03-24 15:41:00,
2017-03-24 08:47:00,45.0,44.0,29.77,ESE,113,0.0,-999.0,98,0.02,,,0.23,,2017-03-24 15:47:00,
2017-03-24 08:53:00,45.0,44.0,29.77,ESE,113,1.0,-999.0,98,0.02,,,0.23,,2017-03-24 15:53:00,
2017-03-24 08:58:00,45.2,45.0,29.77,SE,135,0.0,-999.0,98,0.02,,,0.23,,2017-03-24 15:58:00,
2017-03-24 09:04:00,45.5,45.0,29.78,SE,135,0.0,-999.0,98,0.00,,,0.23,,2017-03-24 16:04:00,
2017-03-24 09:10:00,45.7,45.0,29.78,ESE,113,0.0,-999.0,98,0.00,,,0.23,,2017-03-24 16:10:00,
2017-03-24 09:16:00,45.9,45.0,29.78,ESE,113,0.0,-999.0,98,0.00,,,0.23,,2017-03-24 16:16:00,
2017-03-24 09:21:00,45.9,45.0,29.78,SSE,158,1.0,-999.0,98,0.00,,,0.23,,2017-03-24 16:21:00,
2017-03-24 09:27:00,45.9,45.0,29.78,SSW,203,0.0,-999.0,98,0.00,,,0.23,,2017-03-24 16:27:00,
2017-03-24 09:32:00,45.9,45.0,29.78,SSE,158,0.0,-999.0,98,0.00,,,0.23,,2017-03-24 16:32:00,
2017-03-24 09:38:00,45.9,45.0,29.79,ESE,113,1.0,-999.0,98,0.00,,,0.23,,2017-03-24 16:38:00,
2017-03-24 09:43:00,45.9,45.0,29.78,ESE,113,0.0,-999.0,98,0.00,,,0.23,,2017-03-24 16:43:00,
2017-03-24 09:49:00,45.9,45.0,29.79,SSW,203,1.0,-999.0,98,0.00,,,0.23,,2017-03-24 16:49:00,
2017-03-24 09:55:00,45.9,45.0,29.79,SSE,158,1.0,-999.0,98,0.01,,,0.24,,2017-03-24 16:55:00,
2017-03-24 10:01:00,46.4,46.0,29.79,ESE,113,2.0,-999.0,98,0.00,,,0.24,,2017-03-24 17:01:00,
2017-03-24 10:06:00,46.4,46.0,29.79,SSE,158,2.0,-999.0,98,0.01,,,0.25,,2017-03-24 17:06:00,
2017-03-24 10:12:00,46.7,46.0,29.79,SSE,158,1.0,-999.0,98,0.01,,,0.25,,2017-03-24 17:12:00,
2017-03-24 10:17:00,46.9,46.0,29.79,ESE,113,0.0,-999.0,98,0.01,,,0.25,,2017-03-24 17:17:00,
2017-03-24 10:24:00,47.5,47.0,29.80,South,180,1.0,-999.0,98,0.01,,,0.25,,2017-03-24 17:24:00,
2017-03-24 10:30:00,48.0,47.0,29.80,SSE,158,0.0,-999.0,98,0.01,,,0.25,,2017-03-24 17:30:00,
2017-03-24 10:35:00,48.4,48.0,29.79,SSW,203,2.0,-999.0,98,0.01,,,0.25,,2017-03-24 17:35:00,
2017-03-24 10:40:00,48.4,48.0,29.80,SSE,158,0.0,-999.0,98,0.01,,,0.25,,2017-03-24 17:40:00,
2017-03-24 10:46:00,48.4,48.0,29.80,South,180,0.0,-999.0,98,0.01,,,0.25,,2017-03-24 17:46:00,
2017-03-24 10:51:00,48.5,48.0,29.80,South,180,0.0,-999.0,98,0.01,,,0.25,,2017-03-24 17:51:00,
2017-03-24 10:57:00,48.4,47.0,29.80,South,180,0.0,-999.0,98,0.01,,,0.25,,2017-03-24 17:57:00,
2017-03-24 11:02:00,48.4,47.0,29.80,SSW,203,0.0,-999.0,98,0.00,,,0.25,,2017-03-24 18:02:00,
2017-03-24 11:09:00,49.0,48.0,29.81,South,180,0.0,-999.0,98,0.00,,,0.25,,2017-03-24 18:09:00,
2017-03-24 11:15:00,49.6,49.0,29.80,SSW,203,0.0,-999.0,98,0.00,,,0.25,,2017-03-24 18:15:00,
2017-03-24 11:20:00,50.1,49.0,29.81,South,180,0.0,-999.0,96,0.00,,,0.25,,2017-03-24 18:20:00,
2017-03-24 11:26:00,50.7,49.0,29.81,East,90,2.0,-999.0,96,0.00,,,0.25,,2017-03-24 18:26:00,
2017-03-24 11:31:00,50.7,49.0,29.81,SSW,203,1.0,-999.0,93,0.00,,,0.25,,2017-03-24 18:31:00,
2017-03-24 11:38:00,51.3,49.0,29.81,SSW,203,1.0,-999.0,93,0.00,,,0.25,,2017-03-24 18:38:00,
2017-03-24 11:43:00,51.4,49.0,29.80,South,180,2.0,-999.0,93,0.00,,,0.25,,2017-03-24 18:43:00,
2017-03-24 11:49:00,51.3,49.0,29.80,South,180,2.0,-999.0,93,0.00,,,0.25,,2017-03-24 18:49:00,
2017-03-24 11:54:00,51.3,49.0,29.81,SSW,203,2.0,-999.0,91,0.00,,,0.25,,2017-03-24 18:54:00,
2017-03-24 12:00:00,51.9,49.0,29.80,South,180,3.0,-999.0,91,0.00,,,0.25,,2017-03-24 19:00:00,
2017-03-24 12:05:00,51.8,49.0,29.80,WSW,248,4.0,-999.0,91,0.00,,,0.25,,2017-03-24 19:05:00,
2017-03-24 12:11:00,52.3,48.0,29.80,ESE,113,2.0,-999.0,88,0.00,,,0.25,,2017-03-24 19:11:00,
2017-03-24 12:16:00,52.2,49.0,29.80,SW,225,5.0,-999.0,88,0.00,,,0.25,,2017-03-24 19:16:00,
2017-03-24 12:22:00,51.8,48.0,29.81,SSW,203,2.0,-999.0,88,0.00,,,0.25,,2017-03-24 19:22:00,
2017-03-24 12:28:00,51.5,47.0,29.80,SSW,203,7.0,-999.0,86,0.00,,,0.25,,2017-03-24 19:28:00,
2017-03-24 12:33:00,52.2,48.0,29.80,SE,135,2.0,-999.0,88,0.00,,,0.25,,2017-03-24 19:33:00,
2017-03-24 12:39:00,52.8,49.0,29.80,South,180,1.0,-999.0,88,0.00,,,0.25,,2017-03-24 19:39:00,
2017-03-24 12:45:00,53.4,49.0,29.80,South,180,5.0,-999.0,85,0.00,,,0.25,,2017-03-24 19:45:00,
2017-03-24 12:51:00,53.2,48.0,29.80,SSE,158,2.0,-999.0,83,0.00,,,0.25,,2017-03-24 19:51:00,
2017-03-24 12:57:00,53.2,48.0,29.80,SSW,203,4.0,-999.0,85,0.00,,,0.25,,2017-03-24 19:57:00,
2017-03-24 13:03:00,53.4,48.0,29.80,NNE,23,5.0,-999.0,81,0.00,,,0.25,,2017-03-24 20:03:00,
2017-03-24 13:08:00,52.8,47.0,29.81,SW,225,1.0,-999.0,81,0.00,,,0.25,,2017-03-24 20:08:00,
2017-03-24 13:14:00,53.1,47.0,29.81,WSW,248,2.0,-999.0,81,0.00,,,0.25,,2017-03-24 20:14:00,
2017-03-24 13:16:00,53.1,47.0,29.80,SSW,203,6.0,-999.0,81,0.00,,,0.25,,2017-03-24 20:16:00,
2017-03-24 13:21:00,53.2,47.0,29.81,SSE,158,3.0,-999.0,80,0.00,,,0.25,,2017-03-24 20:21:00,
2017-03-24 13:27:00,53.1,47.0,29.81,SSW,203,7.0,-999.0,80,0.00,,,0.25,,2017-03-24 20:27:00,
2017-03-24 13:32:00,52.5,47.0,29.81,SE,135,4.0,-999.0,83,0.00,,,0.25,,2017-03-24 20:32:00,
2017-03-24 13:38:00,51.9,47.0,29.81,South,180,2.0,-999.0,85,0.00,,,0.25,,2017-03-24 20:38:00,
2017-03-24 13:43:00,51.4,47.0,29.81,SW,225,5.0,-999.0,86,0.00,,,0.25,,2017-03-24 20:43:00,
2017-03-24 13:50:00,50.9,46.0,29.82,SSW,203,9.0,-999.0,83,0.00,,,0.25,,2017-03-24 20:50:00,
2017-03-24 13:55:00,50.1,47.0,29.82,SSW,203,3.0,-999.0,90,0.00,,,0.25,,2017-03-24 20:55:00,
2017-03-24 14:01:00,50.1,47.0,29.82,South,180,6.0,-999.0,91,0.00,,,0.26,,2017-03-24 21:01:00,
2017-03-24 14:06:00,50.0,48.0,29.82,South,180,3.0,-999.0,93,0.00,,,0.26,,2017-03-24 21:06:00,
2017-03-24 14:12:00,49.4,47.0,29.82,SSW,203,2.0,-999.0,93,0.02,,,0.28,,2017-03-24 21:12:00,
2017-03-24 14:17:00,48.9,47.0,29.82,SW,225,6.0,-999.0,96,0.04,,,0.30,,2017-03-24 21:17:00,
2017-03-24 14:23:00,48.5,47.0,29.82,SSW,203,2.0,-999.0,96,0.05,,,0.31,,2017-03-24 21:23:00,
2017-03-24 14:29:00,48.5,48.0,29.82,SSE,158,1.0,-999.0,98,0.05,,,0.31,,2017-03-24 21:29:00,
2017-03-24 14:35:00,49.8,48.0,29.81,SE,135,2.0,-999.0,96,0.05,,,0.31,,2017-03-24 21:35:00,
2017-03-24 14:40:00,50.9,50.0,29.81,South,180,1.0,-999.0,96,0.05,,,0.31,,2017-03-24 21:40:00,
2017-03-24 14:46:00,51.8,50.0,29.81,South,180,1.0,-999.0,96,0.05,,,0.31,,2017-03-24 21:46:00,
2017-03-24 14:51:00,51.4,50.0,29.81,SE,135,2.0,-999.0,96,0.05,,,0.31,,2017-03-24 21:51:00,
2017-03-24 14:57:00,51.9,49.0,29.81,South,180,6.0,-999.0,91,0.05,,,0.31,,2017-03-24 21:57:00,
2017-03-24 15:02:00,52.2,50.0,29.81,South,180,6.0,-999.0,93,0.00,,,0.31,,2017-03-24 22:02:00,
2017-03-24 15:08:00,51.9,49.0,29.81,South,180,7.0,-999.0,91,0.00,,,0.31,,2017-03-24 22:08:00,
2017-03-24 15:13:00,50.9,49.0,29.82,South,180,6.0,-999.0,95,0.01,,,0.32,,2017-03-24 22:13:00,
2017-03-24 15:19:00,50.1,48.0,29.82,SSW,203,4.0,-999.0,95,0.02,,,0.33,,2017-03-24 22:19:00,
2017-03-24 15:25:00,50.3,49.0,29.82,SSE,158,2.0,-999.0,96,0.03,,,0.34,,2017-03-24 22:25:00,
2017-03-24 15:30:00,51.5,50.0,29.82,South,180,6.0,-999.0,96,0.03,,,0.34,,2017-03-24 22:30:00,
2017-03-24 15:36:00,52.2,50.0,29.82,South,180,5.0,-999.0,93,0.03,,,0.34,,2017-03-24 22:36:00,
2017-03-24 15:41:00,53.4,50.0,29.82,South,180,2.0,-999.0,90,0.03,,,0.34,,2017-03-24 22:41:00,
2017-03-24 15:47:00,53.8,49.0,29.81,East,90,4.0,-999.0,86,0.03,,,0.34,,2017-03-24 22:47:00,
2017-03-24 15:53:00,52.6,49.0,29.82,South,180,2.0,-999.0,88,0.03,,,0.34,,2017-03-24 22:53:00,
2017-03-24 15:59:00,53.1,49.0,29.82,South,180,2.0,-999.0,88,0.03,,,0.34,,2017-03-24 22:59:00,
2017-03-24 16:04:00,54.7,50.0,29.81,SSW,203,2.0,-999.0,86,0.00,,,0.34,,2017-03-24 23:04:00,
2017-03-24 16:10:00,55.0,50.0,29.82,SSW,203,3.0,-999.0,83,0.00,,,0.34,,2017-03-24 23:10:00,
2017-03-24 16:15:00,54.7,50.0,29.82,South,180,5.0,-999.0,85,0.00,,,0.34,,2017-03-24 23:15:00,
2017-03-24 16:22:00,54.4,50.0,29.82,SSE,158,2.0,-999.0,85,0.00,,,0.34,,2017-03-24 23:22:00,
2017-03-24 16:28:00,53.5,49.0,29.82,North,0,1.0,-999.0,86,0.00,,,0.34,,2017-03-24 23:28:00,